Location: Skanderborg
(56.0313°N, 9.9317°E)
Time: 23:11:05
(UTC+00:00)

Thor Agena Rocket - Pass Details

Date: 15 August 2020
Orbit: 760 x 807 km, 99.0° (Epoch: 23 September)

Event Time Altitude Azimuth Distance (km) Brightness Sun altitude
Rises 22:25:38 0° 17° (NNE) 3,247 7.7 -19.2°
Reaches altitude 10° 22:27:57 10° 20° (NNE) 2,321 6.8 -19.3°
Maximum altitude 22:33:04 74° 105° (ESE) 811 3.5 -19.5°
Enters shadow 22:35:04 38° 182° (S) 1,175 3.9 -19.5°
